owner,sensor,date,latitude,longitude,air_temperature,qcFlag 
FIT,ioos:station:wmo:SIPF1:1,2016-01-01T00:00:00Z,27.8620,-80.4450,25.1,11111222 
FIT,ioos:station:wmo:SIPF1:1,2016-01-01T00:15:00Z,27.8620,-80.4450,25.2,11111222 
FIT,ioos:station:wmo:SIPF1:1,2016-01-01T00:30:00Z,27.8620,-80.4450,25.0,11111222 
FIT,ioos:station:wmo:SIPF1:1,2016-01-01T00:45:00Z,27.8620,-80.4450,24.9,11111222 
FIT,ioos:station:wmo:SIPF1:1,2016-01-01T01:00:00Z,27.8620,-80.4450,24.8,11111222 
FIT,ioos:station:wmo:SIPF1:1,2016-01-01T01:15:00Z,27.8620,-80.4450,24.8,11111222 
FIT,ioos:station:wmo:SIPF1:1,2016-01-01T01:30:00Z,27.8620,-80.4450,24.8,11111222 
FIT,ioos:station:wmo:SIPF1:1,2016-01-01T01:45:00Z,27.8620,-80.4450,24.8,11111222 
FIT,ioos:station:wmo:SIPF1:1,2016-01-01T02:00:00Z,27.8620,-80.4450,24.8,11111222 
FIT,ioos:station:wmo:SIPF1:1,2016-01-01T02:15:00Z,27.8620,-80.4450,24.7,11111222 
FIT,ioos:station:wmo:SIPF1:1,2016-01-01T02:30:00Z,27.8620,-80.4450,24.6,11111222 
FIT,ioos:station:wmo:SIPF1:1,2016-01-01T02:45:00Z,27.8620,-80.4450,24.7,11111222 
FIT,ioos:station:wmo:SIPF1:1,2016-01-01T03:00:00Z,27.8620,-80.4450,24.5,11111222 
FIT,ioos:station:wmo:SIPF1:1,2016-01-01T03:15:00Z,27.8620,-80.4450,24.5,11111222 
FIT,ioos:station:wmo:SIPF1:1,2016-01-01T03:30:00Z,27.8620,-80.4450,24.2,11111222 
FIT,ioos:station:wmo:SIPF1:1,2016-01-01T03:45:00Z,27.8620,-80.4450,24.1,11111222 
FIT,ioos:station:wmo:SIPF1:1,2016-01-01T04:00:00Z,27.8620,-80.4450,24.2,11111222 
FIT,ioos:station:wmo:SIPF1:1,2016-01-01T04:15:00Z,27.8620,-80.4450,24.1,11111222 
FIT,ioos:station:wmo:SIPF1:1,2016-01-01T04:30:00Z,27.8620,-80.4450,23.8,11111222 
FIT,ioos:station:wmo:SIPF1:1,2016-01-01T04:45:00Z,27.8620,-80.4450,23.7,11111222 
FIT,ioos:station:wmo:SIPF1:1,2016-01-01T05:00:00Z,27.8620,-80.4450,23.7,11111222 
FIT,ioos:station:wmo:SIPF1:1,2016-01-01T05:15:00Z,27.8620,-80.4450,23.6,11111222 
FIT,ioos:station:wmo:SIPF1:1,2016-01-01T05:30:00Z,27.8620,-80.4450,23.5,11111222 
FIT,ioos:station:wmo:SIPF1:1,2016-01-01T05:45:00Z,27.8620,-80.4450,23.5,11111222 
FIT,ioos:station:wmo:SIPF1:1,2016-01-01T06:00:00Z,27.8620,-80.4450,23.5,11111222 
FIT,ioos:station:wmo:SIPF1:1,2016-01-01T06:15:00Z,27.8620,-80.4450,23.5,11111222 
FIT,ioos:station:wmo:SIPF1:1,2016-01-01T06:30:00Z,27.8620,-80.4450,23.5,11111222 
FIT,ioos:station:wmo:SIPF1:1,2016-01-01T06:45:00Z,27.8620,-80.4450,23.4,11111222 
FIT,ioos:station:wmo:SIPF1:1,2016-01-01T07:00:00Z,27.8620,-80.4450,23.2,11111222 
FIT,ioos:station:wmo:SIPF1:1,2016-01-01T07:15:00Z,27.8620,-80.4450,23.0,11111222 
FIT,ioos:station:wmo:SIPF1:1,2016-01-01T07:30:00Z,27.8620,-80.4450,22.7,11111222 
FIT,ioos:station:wmo:SIPF1:1,2016-01-01T07:45:00Z,27.8620,-80.4450,22.6,11111222 
FIT,ioos:station:wmo:SIPF1:1,2016-01-01T08:00:00Z,27.8620,-80.4450,22.4,11111222 
FIT,ioos:station:wmo:SIPF1:1,2016-01-01T08:15:00Z,27.8620,-80.4450,22.4,11111222 
FIT,ioos:station:wmo:SIPF1:1,2016-01-01T08:30:00Z,27.8620,-80.4450,22.3,11111222 
FIT,ioos:station:wmo:SIPF1:1,2016-01-01T08:45:00Z,27.8620,-80.4450,22.2,11111222 
FIT,ioos:station:wmo:SIPF1:1,2016-01-01T09:00:00Z,27.8620,-80.4450,22.3,11111222 
FIT,ioos:station:wmo:SIPF1:1,2016-01-01T09:15:00Z,27.8620,-80.4450,22.5,11111222 
FIT,ioos:station:wmo:SIPF1:1,2016-01-01T09:30:00Z,27.8620,-80.4450,22.4,11111222 
FIT,ioos:station:wmo:SIPF1:1,2016-01-01T09:45:00Z,27.8620,-80.4450,22.4,11111222 
FIT,ioos:station:wmo:SIPF1:1,2016-01-01T10:00:00Z,27.8620,-80.4450,22.5,11111222 
FIT,ioos:station:wmo:SIPF1:1,2016-01-01T10:15:00Z,27.8620,-80.4450,22.4,11111222 
FIT,ioos:station:wmo:SIPF1:1,2016-01-01T10:30:00Z,27.8620,-80.4450,22.5,11111222 
FIT,ioos:station:wmo:SIPF1:1,2016-01-01T10:45:00Z,27.8620,-80.4450,22.6,11111222 
FIT,ioos:station:wmo:SIPF1:1,2016-01-01T11:00:00Z,27.8620,-80.4450,22.5,11111222 
FIT,ioos:station:wmo:SIPF1:1,2016-01-01T11:15:00Z,27.8620,-80.4450,22.5,11111222 
FIT,ioos:station:wmo:SIPF1:1,2016-01-01T11:30:00Z,27.8620,-80.4450,22.5,11111222 
FIT,ioos:station:wmo:SIPF1:1,2016-01-01T11:45:00Z,27.8620,-80.4450,22.5,11111222 
FIT,ioos:station:wmo:SIPF1:1,2016-01-01T12:00:00Z,27.8620,-80.4450,22.6,11111222 
FIT,ioos:station:wmo:SIPF1:1,2016-01-01T12:15:00Z,27.8620,-80.4450,22.5,11111222 
FIT,ioos:station:wmo:SIPF1:1,2016-01-01T12:30:00Z,27.8620,-80.4450,22.5,11111222 
FIT,ioos:station:wmo:SIPF1:1,2016-01-01T12:45:00Z,27.8620,-80.4450,22.5,11111222 
FIT,ioos:station:wmo:SIPF1:1,2016-01-01T13:00:00Z,27.8620,-80.4450,22.7,11111222 
FIT,ioos:station:wmo:SIPF1:1,2016-01-01T13:15:00Z,27.8620,-80.4450,23.1,11111222 
FIT,ioos:station:wmo:SIPF1:1,2016-01-01T13:30:00Z,27.8620,-80.4450,23.3,11111222 
FIT,ioos:station:wmo:SIPF1:1,2016-01-01T13:45:00Z,27.8620,-80.4450,23.7,11111222 
FIT,ioos:station:wmo:SIPF1:1,2016-01-01T14:00:00Z,27.8620,-80.4450,23.8,11111222 
FIT,ioos:station:wmo:SIPF1:1,2016-01-01T14:15:00Z,27.8620,-80.4450,23.9,11111222 
FIT,ioos:station:wmo:SIPF1:1,2016-01-01T14:30:00Z,27.8620,-80.4450,24.2,11111222 
FIT,ioos:station:wmo:SIPF1:1,2016-01-01T14:45:00Z,27.8620,-80.4450,24.4,11111222 
FIT,ioos:station:wmo:SIPF1:1,2016-01-01T15:00:00Z,27.8620,-80.4450,25.0,11111222 
FIT,ioos:station:wmo:SIPF1:1,2016-01-01T15:15:00Z,27.8620,-80.4450,25.4,11111222 
FIT,ioos:station:wmo:SIPF1:1,2016-01-01T15:30:00Z,27.8620,-80.4450,25.3,11111222 
FIT,ioos:station:wmo:SIPF1:1,2016-01-01T15:45:00Z,27.8620,-80.4450,25.1,11111222 
FIT,ioos:station:wmo:SIPF1:1,2016-01-01T16:00:00Z,27.8620,-80.4450,25.2,11111222 
FIT,ioos:station:wmo:SIPF1:1,2016-01-01T16:15:00Z,27.8620,-80.4450,25.6,11111222 
FIT,ioos:station:wmo:SIPF1:1,2016-01-01T16:30:00Z,27.8620,-80.4450,25.6,11111222 
FIT,ioos:station:wmo:SIPF1:1,2016-01-01T16:45:00Z,27.8620,-80.4450,25.9,11111222 
FIT,ioos:station:wmo:SIPF1:1,2016-01-01T17:00:00Z,27.8620,-80.4450,26.1,11111222 
FIT,ioos:station:wmo:SIPF1:1,2016-01-01T17:15:00Z,27.8620,-80.4450,26.5,11111222 
FIT,ioos:station:wmo:SIPF1:1,2016-01-01T17:30:00Z,27.8620,-80.4450,26.4,11111222 
FIT,ioos:station:wmo:SIPF1:1,2016-01-01T17:45:00Z,27.8620,-80.4450,26.3,11111222 
FIT,ioos:station:wmo:SIPF1:1,2016-01-01T18:00:00Z,27.8620,-80.4450,26.6,11111222 
FIT,ioos:station:wmo:SIPF1:1,2016-01-01T18:15:00Z,27.8620,-80.4450,27.0,11111222 
FIT,ioos:station:wmo:SIPF1:1,2016-01-01T18:30:00Z,27.8620,-80.4450,25.8,11111222 
FIT,ioos:station:wmo:SIPF1:1,2016-01-01T18:45:00Z,27.8620,-80.4450,25.2,11111222 
FIT,ioos:station:wmo:SIPF1:1,2016-01-01T19:00:00Z,27.8620,-80.4450,25.1,11111222 
FIT,ioos:station:wmo:SIPF1:1,2016-01-01T19:15:00Z,27.8620,-80.4450,24.9,11111222 
FIT,ioos:station:wmo:SIPF1:1,2016-01-01T19:30:00Z,27.8620,-80.4450,24.9,11111222 
FIT,ioos:station:wmo:SIPF1:1,2016-01-01T19:45:00Z,27.8620,-80.4450,24.9,11111222 
FIT,ioos:station:wmo:SIPF1:1,2016-01-01T20:00:00Z,27.8620,-80.4450,25.1,11111222 
FIT,ioos:station:wmo:SIPF1:1,2016-01-01T20:15:00Z,27.8620,-80.4450,25.0,11111222 
FIT,ioos:station:wmo:SIPF1:1,2016-01-01T20:30:00Z,27.8620,-80.4450,24.9,11111222 
FIT,ioos:station:wmo:SIPF1:1,2016-01-01T20:45:00Z,27.8620,-80.4450,24.8,11111222 
FIT,ioos:station:wmo:SIPF1:1,2016-01-01T21:00:00Z,27.8620,-80.4450,24.9,11111222 
FIT,ioos:station:wmo:SIPF1:1,2016-01-01T21:15:00Z,27.8620,-80.4450,24.9,11111222 
FIT,ioos:station:wmo:SIPF1:1,2016-01-01T21:30:00Z,27.8620,-80.4450,24.9,11111222 
FIT,ioos:station:wmo:SIPF1:1,2016-01-01T21:45:00Z,27.8620,-80.4450,25.0,11111222 
FIT,ioos:station:wmo:SIPF1:1,2016-01-01T22:00:00Z,27.8620,-80.4450,24.9,11111222 
FIT,ioos:station:wmo:SIPF1:1,2016-01-01T22:15:00Z,27.8620,-80.4450,25.0,11111222 
FIT,ioos:station:wmo:SIPF1:1,2016-01-01T22:30:00Z,27.8620,-80.4450,25.0,11111222 
FIT,ioos:station:wmo:SIPF1:1,2016-01-01T22:45:00Z,27.8620,-80.4450,25.0,11111222 
FIT,ioos:station:wmo:SIPF1:1,2016-01-01T23:00:00Z,27.8620,-80.4450,25.0,11111222 
FIT,ioos:station:wmo:SIPF1:1,2016-01-01T23:15:00Z,27.8620,-80.4450,25.1,11111222 
FIT,ioos:station:wmo:SIPF1:1,2016-01-01T23:30:00Z,27.8620,-80.4450,25.1,11111222 
FIT,ioos:station:wmo:SIPF1:1,2016-01-01T23:45:00Z,27.8620,-80.4450,25.1,11111222 
FIT,ioos:station:wmo:SIPF1:1,2016-01-02T00:00:00Z,27.8620,-80.4450,25.1,11111222 
FIT,ioos:station:wmo:SIPF1:1,2016-01-02T00:15:00Z,27.8620,-80.4450,25.1,11111222 
FIT,ioos:station:wmo:SIPF1:1,2016-01-02T00:30:00Z,27.8620,-80.4450,25.0,11111222 
FIT,ioos:station:wmo:SIPF1:1,2016-01-02T00:45:00Z,27.8620,-80.4450,25.0,11111222 
FIT,ioos:station:wmo:SIPF1:1,2016-01-02T01:00:00Z,27.8620,-80.4450,24.7,11111222 
FIT,ioos:station:wmo:SIPF1:1,2016-01-02T01:15:00Z,27.8620,-80.4450,24.9,11111222 
FIT,ioos:station:wmo:SIPF1:1,2016-01-02T01:30:00Z,27.8620,-80.4450,24.8,11111222 
FIT,ioos:station:wmo:SIPF1:1,2016-01-02T01:45:00Z,27.8620,-80.4450,24.6,11111222 
FIT,ioos:station:wmo:SIPF1:1,2016-01-02T02:00:00Z,27.8620,-80.4450,24.5,11111222 
FIT,ioos:station:wmo:SIPF1:1,2016-01-02T02:15:00Z,27.8620,-80.4450,24.4,11111222 
FIT,ioos:station:wmo:SIPF1:1,2016-01-02T02:30:00Z,27.8620,-80.4450,24.2,11111222 
FIT,ioos:station:wmo:SIPF1:1,2016-01-02T02:45:00Z,27.8620,-80.4450,24.1,11111222 
FIT,ioos:station:wmo:SIPF1:1,2016-01-02T03:00:00Z,27.8620,-80.4450,24.1,11111222 
FIT,ioos:station:wmo:SIPF1:1,2016-01-02T03:15:00Z,27.8620,-80.4450,24.1,11111222 
FIT,ioos:station:wmo:SIPF1:1,2016-01-02T03:30:00Z,27.8620,-80.4450,23.9,11111222 
FIT,ioos:station:wmo:SIPF1:1,2016-01-02T03:45:00Z,27.8620,-80.4450,23.7,11111222 
FIT,ioos:station:wmo:SIPF1:1,2016-01-02T04:00:00Z,27.8620,-80.4450,23.7,11111222 
FIT,ioos:station:wmo:SIPF1:1,2016-01-02T04:15:00Z,27.8620,-80.4450,23.4,11111222 
FIT,ioos:station:wmo:SIPF1:1,2016-01-02T04:30:00Z,27.8620,-80.4450,22.8,11111222 
FIT,ioos:station:wmo:SIPF1:1,2016-01-02T04:45:00Z,27.8620,-80.4450,22.6,11111222 
FIT,ioos:station:wmo:SIPF1:1,2016-01-02T05:00:00Z,27.8620,-80.4450,22.3,11111222 
FIT,ioos:station:wmo:SIPF1:1,2016-01-02T05:15:00Z,27.8620,-80.4450,22.2,11111222 
FIT,ioos:station:wmo:SIPF1:1,2016-01-02T05:30:00Z,27.8620,-80.4450,22.3,11111222 
FIT,ioos:station:wmo:SIPF1:1,2016-01-02T05:45:00Z,27.8620,-80.4450,22.4,11111222 
FIT,ioos:station:wmo:SIPF1:1,2016-01-02T06:00:00Z,27.8620,-80.4450,22.3,11111222 
FIT,ioos:station:wmo:SIPF1:1,2016-01-02T06:15:00Z,27.8620,-80.4450,22.4,11111222 
FIT,ioos:station:wmo:SIPF1:1,2016-01-02T06:30:00Z,27.8620,-80.4450,22.3,11111222 
FIT,ioos:station:wmo:SIPF1:1,2016-01-02T06:45:00Z,27.8620,-80.4450,22.2,11111222 
FIT,ioos:station:wmo:SIPF1:1,2016-01-02T07:00:00Z,27.8620,-80.4450,22.1,11111222 
FIT,ioos:station:wmo:SIPF1:1,2016-01-02T07:15:00Z,27.8620,-80.4450,22.1,11111222 
FIT,ioos:station:wmo:SIPF1:1,2016-01-02T07:30:00Z,27.8620,-80.4450,22.2,11111222 
FIT,ioos:station:wmo:SIPF1:1,2016-01-02T07:45:00Z,27.8620,-80.4450,22.2,11111222 
FIT,ioos:station:wmo:SIPF1:1,2016-01-02T08:00:00Z,27.8620,-80.4450,22.1,11111222 
FIT,ioos:station:wmo:SIPF1:1,2016-01-02T08:15:00Z,27.8620,-80.4450,22.2,11111222 
FIT,ioos:station:wmo:SIPF1:1,2016-01-02T08:30:00Z,27.8620,-80.4450,22.1,11111222 
FIT,ioos:station:wmo:SIPF1:1,2016-01-02T08:45:00Z,27.8620,-80.4450,22.2,11111222 
FIT,ioos:station:wmo:SIPF1:1,2016-01-02T09:00:00Z,27.8620,-80.4450,22.4,11111222 
FIT,ioos:station:wmo:SIPF1:1,2016-01-02T09:15:00Z,27.8620,-80.4450,22.3,11111222 
FIT,ioos:station:wmo:SIPF1:1,2016-01-02T09:30:00Z,27.8620,-80.4450,22.3,11111222 
FIT,ioos:station:wmo:SIPF1:1,2016-01-02T09:45:00Z,27.8620,-80.4450,22.4,11111222 
FIT,ioos:station:wmo:SIPF1:1,2016-01-02T10:00:00Z,27.8620,-80.4450,22.3,11111222 
FIT,ioos:station:wmo:SIPF1:1,2016-01-02T10:15:00Z,27.8620,-80.4450,22.3,11111222 
FIT,ioos:station:wmo:SIPF1:1,2016-01-02T10:30:00Z,27.8620,-80.4450,22.3,11111222 
FIT,ioos:station:wmo:SIPF1:1,2016-01-02T10:45:00Z,27.8620,-80.4450,22.1,11111222 
FIT,ioos:station:wmo:SIPF1:1,2016-01-02T11:00:00Z,27.8620,-80.4450,21.9,11111222 
FIT,ioos:station:wmo:SIPF1:1,2016-01-02T11:15:00Z,27.8620,-80.4450,21.8,11111222 
FIT,ioos:station:wmo:SIPF1:1,2016-01-02T11:30:00Z,27.8620,-80.4450,21.6,11111222 
FIT,ioos:station:wmo:SIPF1:1,2016-01-02T11:45:00Z,27.8620,-80.4450,21.5,11111222 
FIT,ioos:station:wmo:SIPF1:1,2016-01-02T12:00:00Z,27.8620,-80.4450,21.6,11111222 
FIT,ioos:station:wmo:SIPF1:1,2016-01-02T12:15:00Z,27.8620,-80.4450,21.6,11111222 
FIT,ioos:station:wmo:SIPF1:1,2016-01-02T12:30:00Z,27.8620,-80.4450,21.6,11111222 
FIT,ioos:station:wmo:SIPF1:1,2016-01-02T12:45:00Z,27.8620,-80.4450,21.5,11111222 
FIT,ioos:station:wmo:SIPF1:1,2016-01-02T13:00:00Z,27.8620,-80.4450,21.3,11111222 
FIT,ioos:station:wmo:SIPF1:1,2016-01-02T13:15:00Z,27.8620,-80.4450,21.1,11111222 
FIT,ioos:station:wmo:SIPF1:1,2016-01-02T13:30:00Z,27.8620,-80.4450,21.2,11111222 
FIT,ioos:station:wmo:SIPF1:1,2016-01-02T13:45:00Z,27.8620,-80.4450,21.3,11111222 
FIT,ioos:station:wmo:SIPF1:1,2016-01-02T14:00:00Z,27.8620,-80.4450,21.2,11111222 
FIT,ioos:station:wmo:SIPF1:1,2016-01-02T14:15:00Z,27.8620,-80.4450,21.1,11111222 
FIT,ioos:station:wmo:SIPF1:1,2016-01-02T14:30:00Z,27.8620,-80.4450,21.1,11111222 
FIT,ioos:station:wmo:SIPF1:1,2016-01-02T14:45:00Z,27.8620,-80.4450,21.0,11111222 
FIT,ioos:station:wmo:SIPF1:1,2016-01-02T15:00:00Z,27.8620,-80.4450,21.0,11111222 
FIT,ioos:station:wmo:SIPF1:1,2016-01-02T15:15:00Z,27.8620,-80.4450,20.9,11111222 
FIT,ioos:station:wmo:SIPF1:1,2016-01-02T15:30:00Z,27.8620,-80.4450,20.9,11111222 
FIT,ioos:station:wmo:SIPF1:1,2016-01-02T15:45:00Z,27.8620,-80.4450,20.6,11111222 
FIT,ioos:station:wmo:SIPF1:1,2016-01-02T16:00:00Z,27.8620,-80.4450,20.0,11111222 
FIT,ioos:station:wmo:SIPF1:1,2016-01-02T16:15:00Z,27.8620,-80.4450,19.9,11111222 
FIT,ioos:station:wmo:SIPF1:1,2016-01-02T16:30:00Z,27.8620,-80.4450,19.8,11111222 
FIT,ioos:station:wmo:SIPF1:1,2016-01-02T16:45:00Z,27.8620,-80.4450,19.6,11111222 
FIT,ioos:station:wmo:SIPF1:1,2016-01-02T17:00:00Z,27.8620,-80.4450,19.4,11111222 
FIT,ioos:station:wmo:SIPF1:1,2016-01-02T17:15:00Z,27.8620,-80.4450,19.5,11111222 
FIT,ioos:station:wmo:SIPF1:1,2016-01-02T17:30:00Z,27.8620,-80.4450,19.7,11111222 
FIT,ioos:station:wmo:SIPF1:1,2016-01-02T17:45:00Z,27.8620,-80.4450,19.6,11111222 
FIT,ioos:station:wmo:SIPF1:1,2016-01-02T18:00:00Z,27.8620,-80.4450,20.0,11111222 
FIT,ioos:station:wmo:SIPF1:1,2016-01-02T18:15:00Z,27.8620,-80.4450,20.2,11111222 
FIT,ioos:station:wmo:SIPF1:1,2016-01-02T18:30:00Z,27.8620,-80.4450,20.5,11111222 
FIT,ioos:station:wmo:SIPF1:1,2016-01-02T18:45:00Z,27.8620,-80.4450,20.5,11111222 
FIT,ioos:station:wmo:SIPF1:1,2016-01-02T19:00:00Z,27.8620,-80.4450,20.5,11111222 
FIT,ioos:station:wmo:SIPF1:1,2016-01-02T19:15:00Z,27.8620,-80.4450,20.4,11111222 
FIT,ioos:station:wmo:SIPF1:1,2016-01-02T19:30:00Z,27.8620,-80.4450,20.5,11111222 
FIT,ioos:station:wmo:SIPF1:1,2016-01-02T19:45:00Z,27.8620,-80.4450,20.7,11111222 
FIT,ioos:station:wmo:SIPF1:1,2016-01-02T20:00:00Z,27.8620,-80.4450,20.9,11111222 
FIT,ioos:station:wmo:SIPF1:1,2016-01-02T20:15:00Z,27.8620,-80.4450,21.1,11111222 
FIT,ioos:station:wmo:SIPF1:1,2016-01-02T20:30:00Z,27.8620,-80.4450,21.1,11111222 
FIT,ioos:station:wmo:SIPF1:1,2016-01-02T20:45:00Z,27.8620,-80.4450,21.0,11111222 
FIT,ioos:station:wmo:SIPF1:1,2016-01-02T21:00:00Z,27.8620,-80.4450,21.1,11111222 
FIT,ioos:station:wmo:SIPF1:1,2016-01-02T21:15:00Z,27.8620,-80.4450,21.1,11111222 
FIT,ioos:station:wmo:SIPF1:1,2016-01-02T21:30:00Z,27.8620,-80.4450,21.1,11111222 
FIT,ioos:station:wmo:SIPF1:1,2016-01-02T21:45:00Z,27.8620,-80.4450,21.1,11111222 
FIT,ioos:station:wmo:SIPF1:1,2016-01-02T22:00:00Z,27.8620,-80.4450,21.3,11111222 
FIT,ioos:station:wmo:SIPF1:1,2016-01-02T22:15:00Z,27.8620,-80.4450,21.2,11111222 
FIT,ioos:station:wmo:SIPF1:1,2016-01-02T22:30:00Z,27.8620,-80.4450,21.1,11111222 
FIT,ioos:station:wmo:SIPF1:1,2016-01-02T22:45:00Z,27.8620,-80.4450,21.0,11111222 
FIT,ioos:station:wmo:SIPF1:1,2016-01-02T23:00:00Z,27.8620,-80.4450,20.9,11111222 
FIT,ioos:station:wmo:SIPF1:1,2016-01-02T23:15:00Z,27.8620,-80.4450,20.9,11111222 
FIT,ioos:station:wmo:SIPF1:1,2016-01-02T23:30:00Z,27.8620,-80.4450,21.0,11111222 
FIT,ioos:station:wmo:SIPF1:1,2016-01-02T23:45:00Z,27.8620,-80.4450,20.8,11111222 
FIT,ioos:station:wmo:SIPF1:1,2016-01-03T00:00:00Z,27.8620,-80.4450,20.6,11111222 
FIT,ioos:station:wmo:SIPF1:1,2016-01-03T00:15:00Z,27.8620,-80.4450,20.4,11111222 
FIT,ioos:station:wmo:SIPF1:1,2016-01-03T00:30:00Z,27.8620,-80.4450,20.2,11111222 
FIT,ioos:station:wmo:SIPF1:1,2016-01-03T00:45:00Z,27.8620,-80.4450,20.2,11111222 
FIT,ioos:station:wmo:SIPF1:1,2016-01-03T01:00:00Z,27.8620,-80.4450,20.2,11111222 
FIT,ioos:station:wmo:SIPF1:1,2016-01-03T01:15:00Z,27.8620,-80.4450,20.4,11111222 
FIT,ioos:station:wmo:SIPF1:1,2016-01-03T01:30:00Z,27.8620,-80.4450,20.4,11111222 
FIT,ioos:station:wmo:SIPF1:1,2016-01-03T01:45:00Z,27.8620,-80.4450,20.4,11111222 
FIT,ioos:station:wmo:SIPF1:1,2016-01-03T02:00:00Z,27.8620,-80.4450,20.3,11111222 
FIT,ioos:station:wmo:SIPF1:1,2016-01-03T02:15:00Z,27.8620,-80.4450,20.4,11111222 
FIT,ioos:station:wmo:SIPF1:1,2016-01-03T02:30:00Z,27.8620,-80.4450,20.4,11111222 
FIT,ioos:station:wmo:SIPF1:1,2016-01-03T02:45:00Z,27.8620,-80.4450,20.5,11111222 
FIT,ioos:station:wmo:SIPF1:1,2016-01-03T03:00:00Z,27.8620,-80.4450,20.5,11111222 
FIT,ioos:station:wmo:SIPF1:1,2016-01-03T03:15:00Z,27.8620,-80.4450,20.5,11111222 
FIT,ioos:station:wmo:SIPF1:1,2016-01-03T03:30:00Z,27.8620,-80.4450,20.7,11111222 
FIT,ioos:station:wmo:SIPF1:1,2016-01-03T03:45:00Z,27.8620,-80.4450,20.9,11111222 
FIT,ioos:station:wmo:SIPF1:1,2016-01-03T04:00:00Z,27.8620,-80.4450,20.2,11111222 
FIT,ioos:station:wmo:SIPF1:1,2016-01-03T04:15:00Z,27.8620,-80.4450,20.1,11111222 
FIT,ioos:station:wmo:SIPF1:1,2016-01-03T04:30:00Z,27.8620,-80.4450,19.8,11111222 
FIT,ioos:station:wmo:SIPF1:1,2016-01-03T04:45:00Z,27.8620,-80.4450,19.7,11111222 
FIT,ioos:station:wmo:SIPF1:1,2016-01-03T05:00:00Z,27.8620,-80.4450,19.4,11111222 
FIT,ioos:station:wmo:SIPF1:1,2016-01-03T05:15:00Z,27.8620,-80.4450,19.0,11111222 
FIT,ioos:station:wmo:SIPF1:1,2016-01-03T05:30:00Z,27.8620,-80.4450,18.6,11111222 
FIT,ioos:station:wmo:SIPF1:1,2016-01-03T05:45:00Z,27.8620,-80.4450,18.2,11111222 
FIT,ioos:station:wmo:SIPF1:1,2016-01-03T06:00:00Z,27.8620,-80.4450,18.1,11111222 
FIT,ioos:station:wmo:SIPF1:1,2016-01-03T06:15:00Z,27.8620,-80.4450,17.8,11111222 
FIT,ioos:station:wmo:SIPF1:1,2016-01-03T06:30:00Z,27.8620,-80.4450,17.6,11111222 
FIT,ioos:station:wmo:SIPF1:1,2016-01-03T06:45:00Z,27.8620,-80.4450,17.5,11111222 
FIT,ioos:station:wmo:SIPF1:1,2016-01-03T07:00:00Z,27.8620,-80.4450,17.4,11111222 
FIT,ioos:station:wmo:SIPF1:1,2016-01-03T07:15:00Z,27.8620,-80.4450,17.2,11111222 
FIT,ioos:station:wmo:SIPF1:1,2016-01-03T07:30:00Z,27.8620,-80.4450,17.0,11111222 
FIT,ioos:station:wmo:SIPF1:1,2016-01-03T07:45:00Z,27.8620,-80.4450,17.0,11111222 
FIT,ioos:station:wmo:SIPF1:1,2016-01-03T08:00:00Z,27.8620,-80.4450,17.2,11111222 
FIT,ioos:station:wmo:SIPF1:1,2016-01-03T08:15:00Z,27.8620,-80.4450,17.3,11111222 
FIT,ioos:station:wmo:SIPF1:1,2016-01-03T08:30:00Z,27.8620,-80.4450,17.3,11111222 
FIT,ioos:station:wmo:SIPF1:1,2016-01-03T08:45:00Z,27.8620,-80.4450,17.0,11111222 
FIT,ioos:station:wmo:SIPF1:1,2016-01-03T09:00:00Z,27.8620,-80.4450,16.9,11111222 
FIT,ioos:station:wmo:SIPF1:1,2016-01-03T09:15:00Z,27.8620,-80.4450,17.1,11111222 
FIT,ioos:station:wmo:SIPF1:1,2016-01-03T09:30:00Z,27.8620,-80.4450,17.3,11111222 
FIT,ioos:station:wmo:SIPF1:1,2016-01-03T09:45:00Z,27.8620,-80.4450,17.3,11111222 
FIT,ioos:station:wmo:SIPF1:1,2016-01-03T10:00:00Z,27.8620,-80.4450,17.5,11111222 
FIT,ioos:station:wmo:SIPF1:1,2016-01-03T10:15:00Z,27.8620,-80.4450,18.0,11111222 
FIT,ioos:station:wmo:SIPF1:1,2016-01-03T10:30:00Z,27.8620,-80.4450,18.4,11111222 
FIT,ioos:station:wmo:SIPF1:1,2016-01-03T10:45:00Z,27.8620,-80.4450,18.0,11111222 
FIT,ioos:station:wmo:SIPF1:1,2016-01-03T11:00:00Z,27.8620,-80.4450,17.4,11111222 
FIT,ioos:station:wmo:SIPF1:1,2016-01-03T11:15:00Z,27.8620,-80.4450,17.0,11111222 
FIT,ioos:station:wmo:SIPF1:1,2016-01-03T11:30:00Z,27.8620,-80.4450,17.2,11111222 
FIT,ioos:station:wmo:SIPF1:1,2016-01-03T11:45:00Z,27.8620,-80.4450,17.3,11111222 
FIT,ioos:station:wmo:SIPF1:1,2016-01-03T12:00:00Z,27.8620,-80.4450,16.8,11111222 
FIT,ioos:station:wmo:SIPF1:1,2016-01-03T12:15:00Z,27.8620,-80.4450,16.7,11111222 
FIT,ioos:station:wmo:SIPF1:1,2016-01-03T12:30:00Z,27.8620,-80.4450,16.9,11111222 
FIT,ioos:station:wmo:SIPF1:1,2016-01-03T12:45:00Z,27.8620,-80.4450,17.1,11111222 
FIT,ioos:station:wmo:SIPF1:1,2016-01-03T13:00:00Z,27.8620,-80.4450,17.9,11111222 
FIT,ioos:station:wmo:SIPF1:1,2016-01-03T13:30:00Z,27.8620,-80.4450,19.0,11111222 
FIT,ioos:station:wmo:SIPF1:1,2016-01-03T13:45:00Z,27.8620,-80.4450,19.0,11111222 
FIT,ioos:station:wmo:SIPF1:1,2016-01-03T14:00:00Z,27.8620,-80.4450,19.5,11111222 
FIT,ioos:station:wmo:SIPF1:1,2016-01-03T14:15:00Z,27.8620,-80.4450,19.1,11111222 
FIT,ioos:station:wmo:SIPF1:1,2016-01-03T14:30:00Z,27.8620,-80.4450,19.1,11111222 
FIT,ioos:station:wmo:SIPF1:1,2016-01-03T14:45:00Z,27.8620,-80.4450,19.4,11111222 
FIT,ioos:station:wmo:SIPF1:1,2016-01-03T15:00:00Z,27.8620,-80.4450,18.7,11111222 
FIT,ioos:station:wmo:SIPF1:1,2016-01-03T15:15:00Z,27.8620,-80.4450,18.2,11111222 
FIT,ioos:station:wmo:SIPF1:1,2016-01-03T15:30:00Z,27.8620,-80.4450,18.0,11111222 
FIT,ioos:station:wmo:SIPF1:1,2016-01-03T15:45:00Z,27.8620,-80.4450,17.2,11111222 
FIT,ioos:station:wmo:SIPF1:1,2016-01-03T16:00:00Z,27.8620,-80.4450,16.6,11111222 
FIT,ioos:station:wmo:SIPF1:1,2016-01-03T16:15:00Z,27.8620,-80.4450,16.8,11111222 
FIT,ioos:station:wmo:SIPF1:1,2016-01-03T16:30:00Z,27.8620,-80.4450,16.7,11111222 
FIT,ioos:station:wmo:SIPF1:1,2016-01-03T16:45:00Z,27.8620,-80.4450,16.8,11111222 
FIT,ioos:station:wmo:SIPF1:1,2016-01-03T17:00:00Z,27.8620,-80.4450,16.8,11111222 
FIT,ioos:station:wmo:SIPF1:1,2016-01-03T17:15:00Z,27.8620,-80.4450,17.4,11111222 
FIT,ioos:station:wmo:SIPF1:1,2016-01-03T17:30:00Z,27.8620,-80.4450,17.7,11111222 
FIT,ioos:station:wmo:SIPF1:1,2016-01-03T17:45:00Z,27.8620,-80.4450,17.8,11111222 
FIT,ioos:station:wmo:SIPF1:1,2016-01-03T18:00:00Z,27.8620,-80.4450,17.9,11111222 
FIT,ioos:station:wmo:SIPF1:1,2016-01-03T18:15:00Z,27.8620,-80.4450,18.1,11111222 
FIT,ioos:station:wmo:SIPF1:1,2016-01-03T18:30:00Z,27.8620,-80.4450,18.2,11111222 
FIT,ioos:station:wmo:SIPF1:1,2016-01-03T18:45:00Z,27.8620,-80.4450,17.8,11111222 
FIT,ioos:station:wmo:SIPF1:1,2016-01-03T19:00:00Z,27.8620,-80.4450,17.1,11111222 
FIT,ioos:station:wmo:SIPF1:1,2016-01-03T19:15:00Z,27.8620,-80.4450,16.6,11111222 
FIT,ioos:station:wmo:SIPF1:1,2016-01-03T19:30:00Z,27.8620,-80.4450,16.3,11111222 
FIT,ioos:station:wmo:SIPF1:1,2016-01-03T19:45:00Z,27.8620,-80.4450,16.1,11111222 
FIT,ioos:station:wmo:SIPF1:1,2016-01-03T20:00:00Z,27.8620,-80.4450,16.0,11111222 
FIT,ioos:station:wmo:SIPF1:1,2016-01-03T20:15:00Z,27.8620,-80.4450,15.8,11111222 
FIT,ioos:station:wmo:SIPF1:1,2016-01-03T20:30:00Z,27.8620,-80.4450,15.7,11111222 
FIT,ioos:station:wmo:SIPF1:1,2016-01-03T20:45:00Z,27.8620,-80.4450,15.5,11111222 
FIT,ioos:station:wmo:SIPF1:1,2016-01-03T21:00:00Z,27.8620,-80.4450,15.3,11111222 
FIT,ioos:station:wmo:SIPF1:1,2016-01-03T21:15:00Z,27.8620,-80.4450,15.3,11111222 
FIT,ioos:station:wmo:SIPF1:1,2016-01-03T21:30:00Z,27.8620,-80.4450,15.4,11111222 
FIT,ioos:station:wmo:SIPF1:1,2016-01-03T21:45:00Z,27.8620,-80.4450,15.7,11111222 
FIT,ioos:station:wmo:SIPF1:1,2016-01-03T22:00:00Z,27.8620,-80.4450,15.8,11111222 
FIT,ioos:station:wmo:SIPF1:1,2016-01-03T22:15:00Z,27.8620,-80.4450,15.8,11111222 
FIT,ioos:station:wmo:SIPF1:1,2016-01-03T22:30:00Z,27.8620,-80.4450,15.9,11111222 
FIT,ioos:station:wmo:SIPF1:1,2016-01-03T22:45:00Z,27.8620,-80.4450,15.9,11111222 
FIT,ioos:station:wmo:SIPF1:1,2016-01-03T23:00:00Z,27.8620,-80.4450,15.9,11111222 
FIT,ioos:station:wmo:SIPF1:1,2016-01-03T23:15:00Z,27.8620,-80.4450,16.0,11111222 
FIT,ioos:station:wmo:SIPF1:1,2016-01-03T23:30:00Z,27.8620,-80.4450,16.6,11111222 
FIT,ioos:station:wmo:SIPF1:1,2016-01-03T23:45:00Z,27.8620,-80.4450,17.6,11111222 
FIT,ioos:station:wmo:SIPF1:1,2016-01-04T00:00:00Z,27.8620,-80.4450,17.8,11111222 
FIT,ioos:station:wmo:SIPF1:1,2016-01-04T00:15:00Z,27.8620,-80.4450,17.9,11111222 
FIT,ioos:station:wmo:SIPF1:1,2016-01-04T00:30:00Z,27.8620,-80.4450,17.1,11111222 
FIT,ioos:station:wmo:SIPF1:1,2016-01-04T00:45:00Z,27.8620,-80.4450,16.8,11111222 